• In Denmark
  • List of Countries
  • For 7 days
  • Water Temperature
  • Satellite Maps
  • Weather Map
  • Weather Widgets
  • user-avatar
    Login

    Hourly Weather Kalgoorlie

    Today, 21 August, Tuesday

    Time Temperature Precipitation Wind Pressure Humidity
    00:00 +17°C° 0 mm 5 mps 729 mmHg 21%
    01:00 +17°C° 0 mm 5 mps 729 mmHg 21%
    02:00 +18°C° 0 mm 4 mps 728 mmHg 20%
    03:00 +18°C° 0 mm 4 mps 728 mmHg 21%
    04:00 +18°C° 0 mm 4 mps 728 mmHg 21%
    05:00 +17°C° 0 mm 3 mps 727 mmHg 21%
    06:00 +18°C° 0 mm 4 mps 727 mmHg 22%
    07:00 +18°C° 0 mm 4 mps 727 mmHg 23%
    08:00 +19°C° 0 mm 4 mps 728 mmHg 30%
    09:00 +21°C° 0 mm 5 mps 727 mmHg 31%
    10:00 +22°C° 0 mm 6 mps 727 mmHg 32%
    11:00 +24°C° 0 mm 7 mps 727 mmHg 33%
    12:00 +24°C° 0 mm 8 mps 726 mmHg 32%
    13:00 +24°C° 0 mm 9 mps 726 mmHg 32%
    14:00 +24°C° 0 mm 10 mps 725 mmHg 31%
    15:00 +23°C° 0 mm 10 mps 725 mmHg 35%
    16:00 +21°C° 0 mm 9 mps 725 mmHg 38%
    17:00 +19°C° 0 mm 9 mps 725 mmHg 42%
    18:00 +20°C° 0 mm 8 mps 726 mmHg 46%
    19:00 +18°C° 0 mm 8 mps 726 mmHg 49%
    20:00 +17°C° 0 mm 7 mps 727 mmHg 53%
    21:00 +16°C° 0 mm 7 mps 727 mmHg 59%
    22:00 +15°C° 0 mm 8 mps 727 mmHg 66%
    23:00 +13°C° 0 mm 8 mps 727 mmHg 73%

    Tomorrow, 22 August, Wednesday

    Time Temperature Precipitation Wind Pressure Humidity
    00:00 +12°C° 0 mm 8 mps 727 mmHg 73%
    01:00 +11°C° 0 mm 9 mps 728 mmHg 73%
    02:00 +11°C° 0 mm 9 mps 728 mmHg 73%
    03:00 +10°C° 0 mm 9 mps 728 mmHg 74%
    04:00 +8°C° 0 mm 9 mps 729 mmHg 75%
    05:00 +7°C° 0 mm 8 mps 729 mmHg 77%
    06:00 +7°C° 0 mm 9 mps 730 mmHg 71%
    07:00 +7°C° 0 mm 9 mps 730 mmHg 66%
    08:00 +7°C° 0 mm 10 mps 731 mmHg 61%
    09:00 +8°C° 0 mm 10 mps 731 mmHg 53%
    10:00 +9°C° 0 mm 10 mps 731 mmHg 45%
    11:00 +12°C° 0 mm 10 mps 732 mmHg 37%
    12:00 +12°C° 0 mm 10 mps 731 mmHg 36%
    13:00 +12°C° 0 mm 10 mps 731 mmHg 36%
    14:00 +13°C° 0 mm 10 mps 731 mmHg 35%
    15:00 +12°C° 0 mm 9 mps 732 mmHg 36%
    16:00 +12°C° 0 mm 9 mps 732 mmHg 38%
    17:00 +11°C° 0 mm 8 mps 733 mmHg 40%
    18:00 +11°C° 0 mm 7 mps 733 mmHg 44%
    19:00 +10°C° 0 mm 6 mps 734 mmHg 49%
    20:00 +9°C° 0 mm 5 mps 735 mmHg 53%
    21:00 +8°C° 0 mm 5 mps 735 mmHg 58%
    22:00 +8°C° 0 mm 4 mps 735 mmHg 63%
    23:00 +7°C° 0 mm 4 mps 735 mmHg 68%

    Day after tomorrow, 23 August, Thursday

    Time Temperature Precipitation Wind Pressure Humidity
    00:00 +7°C° 0 mm 4 mps 735 mmHg 71%
    01:00 +6°C° 0 mm 4 mps 735 mmHg 74%
    02:00 +6°C° 0 mm 4 mps 735 mmHg 77%
    03:00 +5°C° 0 mm 4 mps 735 mmHg 79%
    04:00 +5°C° 0 mm 4 mps 735 mmHg 82%
    05:00 +5°C° 0 mm 4 mps 735 mmHg 84%
    06:00 +6°C° 0 mm 5 mps 736 mmHg 82%
    07:00 +6°C° 0 mm 5 mps 736 mmHg 79%
    08:00 +7°C° 0 mm 6 mps 737 mmHg 77%
    09:00 +9°C° 0 mm 6 mps 737 mmHg 69%
    10:00 +11°C° 0 mm 6 mps 737 mmHg 61%
    11:00 +13°C° 0 mm 6 mps 737 mmHg 52%
    12:00 +13°C° 0 mm 6 mps 736 mmHg 53%
    13:00 +14°C° 0 mm 6 mps 736 mmHg 53%
    14:00 +14°C° 0 mm 6 mps 736 mmHg 54%
    15:00 +13°C° 0 mm 6 mps 736 mmHg 54%
    16:00 +13°C° 0 mm 6 mps 736 mmHg 55%
    17:00 +13°C° 0 mm 6 mps 736 mmHg 55%
    18:00 +12°C° 0 mm 5 mps 736 mmHg 59%
    19:00 +11°C° 0 mm 4 mps 737 mmHg 63%
    20:00 +11°C° 0 mm 4 mps 737 mmHg 67%
    21:00 +10°C° 0 mm 4 mps 737 mmHg 71%
    22:00 +8°C° 0 mm 4 mps 737 mmHg 76%
    23:00 +8°C° 0 mm 4 mps 737 mmHg 81%

    24 August, Friday

    Time Temperature Precipitation Wind Pressure Humidity
    00:00 +7°C° 0 mm 4 mps 737 mmHg 84%
    01:00 +8°C° 0 mm 3 mps 737 mmHg 87%
    02:00 +7°C° 0 mm 3 mps 737 mmHg 91%
    03:00 +7°C° 0 mm 3 mps 737 mmHg 92%
    04:00 +7°C° 0 mm 3 mps 736 mmHg 93%
    05:00 +5°C° 0 mm 3 mps 736 mmHg 94%
    06:00 +7°C° 0 mm 3 mps 737 mmHg 90%
    07:00 +8°C° 0 mm 3 mps 737 mmHg 85%
    08:00 +9°C° 0 mm 3 mps 737 mmHg 81%
    09:00 +10°C° 0 mm 3 mps 737 mmHg 72%
    10:00 +12°C° 0 mm 3 mps 737 mmHg 63%
    11:00 +13°C° 0 mm 3 mps 737 mmHg 54%
    12:00 +14°C° 0 mm 3 mps 736 mmHg 49%
    13:00 +16°C° 0 mm 3 mps 735 mmHg 45%
    14:00 +17°C° 0 mm 3 mps 734 mmHg 40%
    15:00 +17°C° 0 mm 3 mps 734 mmHg 40%
    16:00 +17°C° 0 mm 3 mps 734 mmHg 40%
    17:00 +17°C° 0 mm 3 mps 734 mmHg 40%
    18:00 +16°C° 0 mm 3 mps 734 mmHg 44%
    19:00 +14°C° 0 mm 3 mps 735 mmHg 48%
    20:00 +12°C° 0 mm 4 mps 735 mmHg 52%
    21:00 +12°C° 0 mm 4 mps 735 mmHg 56%
    22:00 +11°C° 0 mm 4 mps 735 mmHg 60%
    23:00 +11°C° 0 mm 4 mps 734 mmHg 63%

    25 August, Saturday

    Time Temperature Precipitation Wind Pressure Humidity
    00:00 +10°C° 0 mm 3 mps 734 mmHg 66%
    01:00 +10°C° 0 mm 3 mps 734 mmHg 69%
    02:00 +9°C° 0 mm 3 mps 733 mmHg 72%
    03:00 +9°C° 0 mm 3 mps 733 mmHg 74%
    04:00 +8°C° 0 mm 3 mps 733 mmHg 76%
    05:00 +8°C° 0 mm 3 mps 733 mmHg 78%
    06:00 +8°C° 0 mm 4 mps 733 mmHg 75%
    07:00 +10°C° 0 mm 4 mps 733 mmHg 72%
    08:00 +10°C° 0 mm 5 mps 734 mmHg 69%
    09:00 +13°C° 0 mm 5 mps 733 mmHg 61%
    10:00 +14°C° 0 mm 4 mps 733 mmHg 53%
    11:00 +17°C° 0 mm 4 mps 733 mmHg 44%
    12:00 +18°C° 0 mm 4 mps 732 mmHg 40%
    13:00 +19°C° 0 mm 4 mps 731 mmHg 36%
    14:00 +20°C° 0 mm 3 mps 730 mmHg 31%
    15:00 +20°C° 0 mm 3 mps 730 mmHg 31%
    16:00 +20°C° 0 mm 3 mps 730 mmHg 30%
    17:00 +20°C° 0 mm 3 mps 730 mmHg 30%
    18:00 +19°C° 0 mm 3 mps 730 mmHg 32%
    19:00 +18°C° 0 mm 3 mps 730 mmHg 34%
    20:00 +17°C° 0 mm 3 mps 731 mmHg 36%
    21:00 +16°C° 0 mm 3 mps 730 mmHg 37%
    22:00 +15°C° 0 mm 4 mps 730 mmHg 38%
    23:00 +14°C° 0 mm 4 mps 730 mmHg 40%

    26 August, Sunday

    Time Temperature Precipitation Wind Pressure Humidity
    00:00 +14°C° 0 mm 4 mps 730 mmHg 41%
    01:00 +13°C° 0 mm 4 mps 729 mmHg 42%
    02:00 +13°C° 0 mm 4 mps 729 mmHg 43%
    03:00 +12°C° 0 mm 4 mps 729 mmHg 44%
    04:00 +12°C° 0 mm 4 mps 729 mmHg 45%
    05:00 +12°C° 0 mm 4 mps 728 mmHg 46%
    06:00 +13°C° 0 mm 4 mps 729 mmHg 43%
    07:00 +14°C° 0 mm 5 mps 729 mmHg 40%
    08:00 +15°C° 0 mm 6 mps 729 mmHg 37%
    09:00 +17°C° 0 mm 7 mps 729 mmHg 32%
    10:00 +20°C° 0 mm 7 mps 729 mmHg 27%
    11:00 +23°C° 0 mm 8 mps 729 mmHg 22%
    12:00 +23°C° 0 mm 9 mps 728 mmHg 20%
    13:00 +24°C° 0 mm 9 mps 727 mmHg 19%
    14:00 +26°C° 0 mm 9 mps 727 mmHg 17%
    15:00 +24°C° 0 mm 8 mps 727 mmHg 19%
    16:00 +23°C° 0 mm 7 mps 727 mmHg 20%
    17:00 +22°C° 0 mm 7 mps 727 mmHg 22%
    18:00 +21°C° 0 mm 6 mps 727 mmHg 25%
    19:00 +19°C° 0 mm 6 mps 728 mmHg 28%
    20:00 +16°C° 0 mm 5 mps 728 mmHg 31%
    21:00 +15°C° 0 mm 5 mps 728 mmHg 42%
    22:00 +13°C° 0 mm 6 mps 728 mmHg 53%
    23:00 +11°C° 0 mm 6 mps 729 mmHg 65%
    Show more